Flag for Germany Past Weather in Pfaffenhofen an der Ilm, Bavaria, Germany — Yesterday and Last 2 Weeks

Now
28 °F

Chilly.


Feels Like: 28 °F
Forecast: 20 / 31 °F
Wind: 2 mph from North

Location: Ingolstadt Airport

Current Time: Dec 6, 2016 at 11:01:33 pm

Latest Report: Dec 6, 2016 at 9:20 pm


Visibility: 0 mi

Pressure: 30.54 "Hg

Humidity: 100%

Dew Point: 28 °F

Location of Pfaffenhofen an der IlmLocation

Past Weather in Pfaffenhofen an der Ilm — Graph

°F

Pfaffenhofen an der Ilm Temperature Yesterday

Maximum temperature yesterday: 28 °F (at 12:20 pm)
Minimum temperature yesterday: 18 °F (at 2:20 am)
Average temperature yesterday: 26 °F

High & Low Weather Summary for the Past Weeks

 TemperatureHumidityPressure
High54 °F (Nov 23, 1:20 pm)100% (Nov 22, 7:20 am)30.54 "Hg (Nov 22, 7:20 am)
Low16 °F (Nov 30, 7:20 am)45% (Dec 1, 2:20 pm)29.71 "Hg (Nov 21, 9:20 pm)
Average35 °F85%30.20 "Hg
* Reported Nov 21 9:20 pm — Dec 6 9:20 pm, Pfaffenhofen an der Ilm, Weather by CustomWeather, © 2016

Note: Actual official high and low records may vary slightly from our data, if they occured in-between our weather recording intervals... More about our weather records

Advertising

Pfaffenhofen an der Ilm Weather History for the Previous 24 Hours

Scroll right to see more
 ConditionsComfort  
Time TempWeatherWind HumidityBarometerVisibility
9:20 pm
Tue, Dec 6
28 °FChilly.2 mph100%30.54 "Hg0 mi
8:20 pm28 °FIce fog.2 mph100%30.51 "Hg0 mi
6:20 pm28 °FIce fog.1 mph100%30.51 "Hg0 mi
5:20 pm28 °FIce fog.2 mph100%30.51 "Hg0 mi
4:20 pm28 °FIce fog.2 mph100%30.48 "Hg0 mi
3:20 pm28 °FIce fog.1 mph100%30.48 "Hg0 mi
2:20 pm28 °FIce fog.2 mph100%30.45 "Hg0 mi
1:20 pm28 °FIce fog.2 mph100%30.45 "Hg0 mi
12:20 pm28 °FIce fog.2 mph93%30.45 "Hg0 mi
11:20 am28 °FIce fog.1 mph93%30.45 "Hg0 mi
10:20 am28 °FIce fog.1 mph93%30.45 "Hg0 mi
9:20 am28 °FIce fog.3 mph93%30.45 "Hg0 mi
8:20 am28 °FIce fog.2 mph93%30.42 "Hg0 mi
7:20 am28 °FIce fog.3 mph93%30.42 "Hg1 mi
6:20 am28 °FIce fog.2 mph93%30.39 "Hg1 mi
5:20 am28 °FIce fog.1 mph93%30.39 "Hg1 mi
4:20 am28 °FChilly.3 mph93%30.39 "Hg0 mi
3:20 am28 °FChilly.3 mph93%30.39 "Hg0 mi
2:20 am28 °FChilly.3 mph93%30.39 "Hg1 mi
1:20 am28 °FChilly.3 mph93%30.39 "Hg0 mi
12:20 am28 °FChilly.3 mph93%30.39 "Hg0 mi
11:20 pm
Mon, Dec 5
28 °FChilly.3 mph93%30.36 "Hg1 mi
Weather by CustomWeather, © 2016

See weather overviewHow to use our weather pages